This is the latest recevied weather packets stored in our database for station/object WX4FUN-13. If no packets are shown the sender has not sent any weather packets the latest 10 day(s).
| Time | Temp. | Humidity | Pressure | Rain* | Wind** | Luminosity | Snow |
|---|---|---|---|---|---|---|---|
| 1777510307 | 14.44° C | 62% | 1011.3 hPa | 0 mm | - | 0 W/m² | - |
| 1777509705 | 14.44° C | 62% | 1011.3 hPa | 0 mm | - | 0 W/m² | - |
| 1777509105 | 14.44° C | 61% | 1011.1 hPa | 0 mm | - | 0 W/m² | - |
| 1777508506 | 15° C | 60% | 1011.1 hPa | 0 mm | - | 0 W/m² | - |
| 1777507901 | 15° C | 58% | 1011.2 hPa | 0 mm | - | 0 W/m² | - |
| 1777507302 | 15.56° C | 57% | 1011 hPa | 0 mm | - | 0 W/m² | - |
| 1777506701 | 15.56° C | 57% | 1011.1 hPa | 0 mm | - | 0 W/m² | - |
| 1777506101 | 16.11° C | 56% | 1011 hPa | 0 mm | - | 4 W/m² | - |
| 1777505502 | 16.11° C | 55% | 1011.1 hPa | 0 mm | - | 8 W/m² | - |
| 1777504899 | 16.67° C | 54% | 1011.1 hPa | 0 mm | - | 15 W/m² | - |
| 1777504300 | 16.67° C | 54% | 1011.1 hPa | 0 mm | - | 28 W/m² | - |
| 1777503702 | 17.22° C | 53% | 1011.1 hPa | 0 mm | - | 34 W/m² | - |
| 1777503102 | 17.78° C | 52% | 1011.1 hPa | 0 mm | - | 43 W/m² | - |
| 1777502498 | 17.78° C | 51% | 1011.2 hPa | 0 mm | - | 55 W/m² | - |
| 1777501896 | 17.78° C | 50% | 1011.2 hPa | 0 mm | - | 56 W/m² | - |
| 1777501296 | 18.33° C | 50% | 1011.3 hPa | 0 mm | - | 59 W/m² | - |
| 1777500693 | 18.33° C | 49% | 1011.4 hPa | 0 mm | - | 73 W/m² | - |
| 1777500092 | 18.33° C | 48% | 1011.4 hPa | 0 mm | - | 85 W/m² | - |
| 1777499492 | 18.33° C | 49% | 1011.3 hPa | 0 mm | - | 89 W/m² | - |
| 1777498891 | 18.89° C | 47% | 1011.3 hPa | 0 mm | - | 113 W/m² | - |
| 1777498292 | 18.89° C | 47% | 1011.4 hPa | 0 mm | - | 130 W/m² | - |
| 1777497688 | 18.89° C | 45% | 1011.6 hPa | 0 mm | - | 130 W/m² | - |
| 1777497089 | 19.44° C | 48% | 1011.8 hPa | 0 mm | - | 142 W/m² | - |
| 1777496489 | 20° C | 47% | 1011.8 hPa | 0 mm | - | 213 W/m² | - |
| 1777495888 | 20° C | 47% | 1011.9 hPa | 0 mm | - | 288 W/m² | - |
* Rain latest hour (hover to see other rain measurements)
** Current wind speed in m/s (hover to see current wind gust speed)